Location: Ammerl�gen
(47.2167°N, 9.6000°E)
Time: 17:54:16
(UTC+00:00)

NOAA 19 - Pass Details

Date: 03 December 2021
Orbit: 841 x 860 km, 99.2° (Epoch: 17 January)

Event Time Altitude Azimuth Distance (km) Brightness Sun altitude
Rises 05:35:11 0° 31° (NNE) 3,429 8.5 -12.2°
Reaches altitude 10° 05:38:43 10° 54° (NE) 2,491 8.1 -11.6°
Maximum altitude 05:41:47 15° 88° (E) 2,154 8.4 -11.1°
Drops below altitude 10° 05:44:50 10° 122° (ESE) 2,488 9.1 -10.7°
Sets 05:48:20 0° 145° (SE) 3,421 9.4 -10.1°
